TimeEST,TemperatureF,Dew PointF,Humidity,Sea Level PressureIn,VisibilityMPH,Wind Direction,Wind SpeedMPH,Gust SpeedMPH,PrecipitationIn,Events,Conditions,WindDirDegrees,DateUTC
12:15 AM,44.6,41.0,87,30.28,5.0,NNE,4.6,-,N/A,,Overcast,30,2013-01-04 05:15:00
12:35 AM,44.6,41.0,87,30.27,5.0,NNE,3.5,-,N/A,,Mostly Cloudy,30,2013-01-04 05:35:00
12:55 AM,42.8,41.0,93,30.26,5.0,NNE,3.5,-,N/A,,Scattered Clouds,30,2013-01-04 05:55:00
1:15 AM,42.8,41.0,93,30.26,5.0,Calm,Calm,-,N/A,,Scattered Clouds,0,2013-01-04 06:15:00
1:35 AM,42.8,39.2,87,30.27,4.0,Calm,Calm,-,N/A,,Scattered Clouds,0,2013-01-04 06:35:00
1:55 AM,42.8,41.0,93,30.28,4.0,Calm,Calm,-,N/A,,Mostly Cloudy,0,2013-01-04 06:55:00
2:15 AM,42.8,41.0,93,30.28,4.0,Calm,Calm,-,N/A,,Mostly Cloudy,0,2013-01-04 07:15:00
2:35 AM,42.8,41.0,93,30.29,4.0,Calm,Calm,-,N/A,,Scattered Clouds,0,2013-01-04 07:35:00
2:55 AM,42.8,39.2,87,30.30,4.0,Calm,Calm,-,N/A,,Clear,0,2013-01-04 07:55:00
3:15 AM,41.0,39.2,93,30.30,4.0,North,3.5,-,N/A,,Clear,10,2013-01-04 08:15:00
3:35 AM,41.0,39.2,93,30.29,3.0,Calm,Calm,-,N/A,,Clear,0,2013-01-04 08:35:00
3:55 AM,39.2,37.4,93,30.29,2.0,Calm,Calm,-,N/A,,Clear,0,2013-01-04 08:55:00
4:15 AM,39.2,37.4,93,30.29,0.8,Calm,Calm,-,N/A,,Mist,0,2013-01-04 09:15:00
4:35 AM,37.4,35.6,93,30.29,0.2,Calm,Calm,-,N/A,Fog,Fog,0,2013-01-04 09:35:00
6:55 AM,37.4,35.6,93,30.30,0.2,Calm,Calm,-,N/A,Snow,Light Snow,0,2013-01-04 11:55:00
7:15 AM,37.4,35.6,93,30.31,0.2,Calm,Calm,-,N/A,Fog,Fog,0,2013-01-04 12:15:00
7:35 AM,35.6,35.6,100,30.31,0.2,Calm,Calm,-,N/A,Fog,Fog,0,2013-01-04 12:35:00
7:55 AM,35.6,35.6,100,30.33,0.2,Calm,Calm,-,N/A,Snow,Light Snow,0,2013-01-04 12:55:00
8:15 AM,35.6,33.8,93,30.33,0.2,Calm,Calm,-,N/A,Snow,Light Snow,0,2013-01-04 13:15:00
8:35 AM,37.4,35.6,93,30.34,0.2,Calm,Calm,-,N/A,Snow,Light Snow,0,2013-01-04 13:35:00
8:55 AM,39.2,37.4,93,30.35,0.2,Calm,Calm,-,N/A,,Unknown,0,2013-01-04 13:55:00
9:15 AM,41.0,41.0,100,30.34,2.0,Calm,Calm,-,N/A,,Mostly Cloudy,0,2013-01-04 14:15:00
9:35 AM,42.8,42.8,100,30.34,5.0,NNE,4.6,-,N/A,,Clear,30,2013-01-04 14:35:00
9:55 AM,44.6,42.8,93,30.35,5.0,NNE,5.8,-,N/A,,Clear,30,2013-01-04 14:55:00
10:15 AM,44.6,41.0,87,30.35,7.0,North,5.8,-,N/A,,Clear,10,2013-01-04 15:15:00
10:35 AM,46.4,39.2,76,30.35,5.0,NE,5.8,-,N/A,,Haze,40,2013-01-04 15:35:00
10:55 AM,48.2,39.2,71,30.34,7.0,North,4.6,-,N/A,,Clear,360,2013-01-04 15:55:00
11:15 AM,50.0,39.2,66,30.35,7.0,Calm,Calm,-,N/A,,Clear,0,2013-01-04 16:15:00
11:35 AM,48.2,39.2,71,30.34,7.0,NNE,4.6,-,N/A,,Clear,30,2013-01-04 16:35:00
11:55 AM,50.0,41.0,71,30.34,5.0,NNW,6.9,-,N/A,,Haze,340,2013-01-04 16:55:00
12:15 PM,50.0,39.2,66,30.32,7.0,NNW,5.8,-,N/A,,Clear,330,2013-01-04 17:15:00
12:35 PM,50.0,39.2,66,30.31,7.0,North,3.5,-,N/A,,Clear,350,2013-01-04 17:35:00
12:55 PM,50.0,39.2,66,30.30,5.0,NNW,3.5,-,N/A,,Haze,340,2013-01-04 17:55:00
1:15 PM,50.0,37.4,62,30.30,7.0,NNE,3.5,-,N/A,,Clear,20,2013-01-04 18:15:00
1:35 PM,51.8,37.4,58,30.29,7.0,Calm,Calm,-,N/A,,Clear,0,2013-01-04 18:35:00
1:55 PM,51.8,37.4,58,30.28,7.0,Calm,Calm,-,N/A,,Clear,0,2013-01-04 18:55:00
2:15 PM,51.8,32.0,47,30.28,7.0,North,4.6,-,N/A,,Clear,350,2013-01-04 19:15:00
2:35 PM,53.6,28.4,38,30.28,10.0,Calm,Calm,-,N/A,,Clear,0,2013-01-04 19:35:00
2:55 PM,53.6,28.4,38,30.27,10.0,North,3.5,-,N/A,,Clear,360,2013-01-04 19:55:00
3:15 PM,53.6,32.0,44,30.26,10.0,Calm,Calm,-,N/A,,Clear,0,2013-01-04 20:15:00
3:35 PM,53.6,33.8,47,30.26,10.0,NNE,3.5,-,N/A,,Clear,30,2013-01-04 20:35:00
4:15 PM,51.8,37.4,58,30.27,5.0,Calm,Calm,-,N/A,,Haze,0,2013-01-04 21:15:00
4:55 PM,51.8,39.2,62,30.27,7.0,Calm,Calm,-,N/A,,Clear,0,2013-01-04 21:55:00
5:15 PM,50.0,39.2,66,30.26,7.0,Calm,Calm,-,N/A,,Clear,0,2013-01-04 22:15:00
5:35 PM,46.4,41.0,81,30.27,10.0,Calm,Calm,-,N/A,,Clear,0,2013-01-04 22:35:00
5:55 PM,46.4,41.0,81,30.28,5.0,Calm,Calm,-,N/A,,Haze,0,2013-01-04 22:55:00
6:15 PM,44.6,39.2,81,30.28,7.0,Calm,Calm,-,N/A,,Clear,0,2013-01-04 23:15:00
6:35 PM,44.6,39.2,81,30.28,7.0,Calm,Calm,-,N/A,,Clear,0,2013-01-04 23:35:00
6:55 PM,42.8,39.2,87,30.29,7.0,Calm,Calm,-,N/A,,Clear,0,2013-01-04 23:55:00
7:15 PM,41.0,39.2,93,30.29,5.0,Calm,Calm,-,N/A,,Clear,0,2013-01-05 00:15:00
7:35 PM,41.0,39.2,93,30.29,5.0,Calm,Calm,-,N/A,,Clear,0,2013-01-05 00:35:00
7:55 PM,41.0,39.2,93,30.30,4.0,Calm,Calm,-,N/A,,Clear,0,2013-01-05 00:55:00
8:15 PM,41.0,37.4,87,30.31,5.0,Calm,Calm,-,N/A,,Clear,0,2013-01-05 01:15:00
8:35 PM,39.2,37.4,93,30.31,5.0,Calm,Calm,-,N/A,,Clear,0,2013-01-05 01:35:00
8:55 PM,39.2,37.4,93,30.31,5.0,Calm,Calm,-,N/A,,Clear,0,2013-01-05 01:55:00
9:15 PM,39.2,37.4,93,30.31,5.0,Calm,Calm,-,N/A,,Clear,0,2013-01-05 02:15:00
9:35 PM,39.2,37.4,93,30.31,5.0,Calm,Calm,-,N/A,,Clear,0,2013-01-05 02:35:00
9:55 PM,39.2,37.4,93,30.32,5.0,Calm,Calm,-,N/A,,Clear,0,2013-01-05 02:55:00
10:15 PM,39.2,37.4,93,30.32,5.0,Calm,Calm,-,N/A,,Clear,0,2013-01-05 03:15:00
10:35 PM,39.2,37.4,93,30.32,7.0,Calm,Calm,-,N/A,,Clear,0,2013-01-05 03:35:00
10:55 PM,37.4,35.6,93,30.32,5.0,Calm,Calm,-,N/A,,Clear,0,2013-01-05 03:55:00
11:15 PM,37.4,35.6,93,30.32,5.0,Calm,Calm,-,N/A,,Clear,0,2013-01-05 04:15:00
11:35 PM,35.6,33.8,93,30.32,5.0,Calm,Calm,-,N/A,,Clear,0,2013-01-05 04:35:00
11:55 PM,37.4,35.6,93,30.32,5.0,Calm,Calm,-,N/A,,Clear,0,2013-01-05 04:55:00